GAP2015 RPUT-RPLL

Flight info

Callsign GAP2015
Flight time 0h 40m
Altitude 20000
Route CUY2P CUY W1 CAB CAB3R
Aircraft A320/M-SDE3FGHIRWY/LB1

Departure

Time 2026-05-08 05:00
Airport Tuguegarao Airport (RPUT)

Arrival

Time 2026-05-08 05:41
Airport Ninoy Aquino International Airport (RPLL)
Time Latitude Longitude Altitude Speed Heading
2026-05-08 04:50 17.64295 121.73474 93 ft 0 kts 83°
2026-05-08 04:56 17.64296 121.73474 93 ft 1 kts 79°
2026-05-08 04:56 17.64310 121.73464 87 ft 8 kts 304°
2026-05-08 04:56 17.64345 121.73396 87 ft 10 kts 299°
2026-05-08 04:57 17.64383 121.73337 88 ft 9 kts 306°
2026-05-08 04:57 17.64470 121.73298 86 ft 19 kts 353°
2026-05-08 04:57 17.64587 121.73281 87 ft 16 kts 352°
2026-05-08 04:57 17.64692 121.73266 87 ft 15 kts 352°
2026-05-08 04:58 17.64789 121.73252 86 ft 14 kts 352°
2026-05-08 04:58 17.64884 121.73238 87 ft 13 kts 352°
2026-05-08 04:58 17.64972 121.73226 86 ft 12 kts 352°
2026-05-08 04:58 17.65048 121.73216 89 ft 10 kts 356°
2026-05-08 04:59 17.65112 121.73210 87 ft 10 kts 353°
2026-05-08 04:59 17.65198 121.73184 87 ft 10 kts 334°
2026-05-08 04:59 17.65217 121.73184 89 ft 1 kts 69°
2026-05-08 04:59 17.65203 121.73191 87 ft 4 kts 162°
2026-05-08 05:00 17.65121 121.73204 93 ft 38 kts 172°
2026-05-08 05:00 17.64600 121.73279 88 ft 109 kts 172°
2026-05-08 05:00 17.63685 121.73406 263 ft 145 kts 173°
2026-05-08 05:00 17.62693 121.73557 902 ft 146 kts 171°
2026-05-08 05:01 17.61669 121.73498 1586 ft 150 kts 203°
2026-05-08 05:01 17.60775 121.72927 2155 ft 153 kts 209°
2026-05-08 05:01 17.59814 121.72306 2483 ft 174 kts 208°
2026-05-08 05:01 17.58702 121.71597 2865 ft 199 kts 209°
2026-05-08 05:02 17.57439 121.70795 3238 ft 224 kts 209°
2026-05-08 05:02 17.56036 121.69902 3765 ft 246 kts 209°
2026-05-08 05:02 17.54560 121.68961 4518 ft 256 kts 209°
2026-05-08 05:02 17.53020 121.67981 5386 ft 261 kts 208°
2026-05-08 05:03 17.51455 121.66987 6282 ft 265 kts 210°
2026-05-08 05:03 17.49861 121.65975 7088 ft 270 kts 210°
2026-05-08 05:03 17.48238 121.64942 7864 ft 276 kts 210°
2026-05-08 05:03 17.46578 121.63886 8653 ft 282 kts 210°
2026-05-08 05:04 17.44860 121.62851 9439 ft 287 kts 203°
2026-05-08 05:04 17.42945 121.62235 10145 ft 293 kts 188°
2026-05-08 05:04 17.40832 121.62174 10410 ft 315 kts 174°
2026-05-08 05:04 17.38567 121.62374 10684 ft 337 kts 174°
2026-05-08 05:05 17.36197 121.62576 11254 ft 345 kts 174°
2026-05-08 05:05 17.33781 121.62776 11955 ft 349 kts 174°
2026-05-08 05:05 17.31342 121.62974 12672 ft 353 kts 174°
2026-05-08 05:05 17.28881 121.63168 13372 ft 357 kts 174°
2026-05-08 05:06 17.26388 121.63360 14007 ft 361 kts 174°
2026-05-08 05:06 17.23883 121.63631 14613 ft 364 kts 168°
2026-05-08 05:06 17.21442 121.64346 15203 ft 366 kts 159°
2026-05-08 05:06 17.19062 121.65231 15780 ft 369 kts 159°
2026-05-08 05:07 17.16626 121.66136 16367 ft 373 kts 159°
2026-05-08 05:07 17.14169 121.67050 16957 ft 377 kts 160°
2026-05-08 05:07 17.11682 121.67972 17526 ft 380 kts 160°
2026-05-08 05:07 17.09175 121.68901 18094 ft 384 kts 160°
2026-05-08 05:08 17.06642 121.69838 18587 ft 388 kts 160°
2026-05-08 05:08 17.04086 121.70782 19091 ft 391 kts 160°
2026-05-08 05:08 17.01510 121.71730 19608 ft 393 kts 160°
2026-05-08 05:08 16.98929 121.72682 19814 ft 394 kts 160°
2026-05-08 05:09 16.96337 121.73537 19872 ft 386 kts 168°
2026-05-08 05:09 16.93694 121.73812 19881 ft 381 kts 181°
2026-05-08 05:09 16.91077 121.73461 19881 ft 379 kts 194°
2026-05-08 05:09 16.88604 121.72526 19882 ft 379 kts 206°
2026-05-08 05:10 16.86235 121.71320 19883 ft 379 kts 206°
2026-05-08 05:10 16.81484 121.68927 19883 ft 379 kts 206°
2026-05-08 05:10 16.79101 121.67733 19888 ft 379 kts 206°
2026-05-08 05:11 16.76726 121.66542 19887 ft 379 kts 206°
2026-05-08 05:11 16.74354 121.65351 19886 ft 379 kts 206°
2026-05-08 05:11 16.72007 121.64172 19888 ft 379 kts 205°
2026-05-08 05:11 16.69632 121.62978 19889 ft 379 kts 205°
2026-05-08 05:12 16.67257 121.61782 19894 ft 379 kts 205°
2026-05-08 05:12 16.64878 121.60589 19893 ft 380 kts 205°
2026-05-08 05:12 16.62498 121.59395 19892 ft 380 kts 205°
2026-05-08 05:12 16.60116 121.58201 19893 ft 380 kts 205°
2026-05-08 05:13 16.57735 121.57007 19890 ft 380 kts 205°
2026-05-08 05:13 16.55366 121.55819 19905 ft 380 kts 205°
2026-05-08 05:13 16.52967 121.54619 19908 ft 388 kts 205°
2026-05-08 05:13 16.50489 121.53383 19910 ft 407 kts 205°
2026-05-08 05:14 16.47879 121.52080 19907 ft 425 kts 205°
2026-05-08 05:14 16.45167 121.50725 19918 ft 440 kts 205°
2026-05-08 05:14 16.42368 121.49323 19918 ft 452 kts 205°
2026-05-08 05:14 16.39496 121.47882 19918 ft 463 kts 205°
2026-05-08 05:15 16.36579 121.46422 19918 ft 467 kts 205°
2026-05-08 05:15 16.33640 121.44952 19932 ft 468 kts 205°
2026-05-08 05:15 16.30707 121.43485 19930 ft 468 kts 205°
2026-05-08 05:15 16.27767 121.42016 19931 ft 469 kts 205°
2026-05-08 05:16 16.24859 121.40563 19929 ft 468 kts 205°
2026-05-08 05:16 16.21921 121.39094 19936 ft 468 kts 205°
2026-05-08 05:16 16.18985 121.37625 19937 ft 468 kts 205°
2026-05-08 05:16 16.16047 121.36159 19936 ft 468 kts 205°
2026-05-08 05:17 16.13108 121.34696 19937 ft 468 kts 205°
2026-05-08 05:17 16.10173 121.33233 19935 ft 468 kts 205°
2026-05-08 05:17 16.07231 121.31764 19935 ft 468 kts 205°
2026-05-08 05:17 16.04293 121.30297 19936 ft 468 kts 205°
2026-05-08 05:18 16.01353 121.28831 19926 ft 468 kts 205°
2026-05-08 05:18 15.98414 121.27368 19925 ft 468 kts 205°
2026-05-08 05:18 15.95481 121.25907 19923 ft 468 kts 205°
2026-05-08 05:18 15.92540 121.24441 19922 ft 468 kts 205°
2026-05-08 05:19 15.89607 121.22979 19922 ft 468 kts 205°
2026-05-08 05:19 15.86678 121.21518 19919 ft 468 kts 205°
2026-05-08 05:19 15.83734 121.20055 19915 ft 468 kts 205°
2026-05-08 05:19 15.80818 121.18609 19898 ft 469 kts 205°
2026-05-08 05:20 15.77874 121.17150 19891 ft 469 kts 205°
2026-05-08 05:20 15.74927 121.15686 19892 ft 469 kts 205°
2026-05-08 05:20 15.71986 121.14223 19894 ft 469 kts 205°
2026-05-08 05:20 15.69049 121.12762 19894 ft 469 kts 205°
2026-05-08 05:21 15.66109 121.11301 19891 ft 469 kts 205°
2026-05-08 05:21 15.63164 121.09841 19889 ft 469 kts 205°
2026-05-08 05:21 15.60214 121.08380 19889 ft 468 kts 205°
2026-05-08 05:21 15.57353 121.06960 19880 ft 444 kts 205°
2026-05-08 05:22 15.54634 121.05607 19887 ft 423 kts 205°
2026-05-08 05:22 15.52035 121.04315 19886 ft 405 kts 205°
2026-05-08 05:22 15.49554 121.03083 19887 ft 389 kts 204°
2026-05-08 05:22 15.47114 121.01914 19887 ft 384 kts 202°
2026-05-08 05:23 15.44651 121.00867 19887 ft 382 kts 200°
2026-05-08 05:23 15.42163 120.99899 19887 ft 381 kts 199°
2026-05-08 05:23 15.39666 120.98966 19887 ft 380 kts 199°
2026-05-08 05:23 15.37210 120.98053 19887 ft 381 kts 199°
2026-05-08 05:24 15.34717 120.97115 19888 ft 381 kts 199°
2026-05-08 05:24 15.32231 120.96162 19890 ft 381 kts 199°
2026-05-08 05:24 15.29744 120.95194 19881 ft 382 kts 199°
2026-05-08 05:24 15.27260 120.94220 19882 ft 382 kts 199°
2026-05-08 05:25 15.24775 120.93240 19884 ft 382 kts 200°
2026-05-08 05:25 15.22295 120.92260 19786 ft 377 kts 200°
2026-05-08 05:25 15.19877 120.91304 19557 ft 368 kts 200°
2026-05-08 05:25 15.17511 120.90373 19345 ft 359 kts 200°
2026-05-08 05:26 15.15197 120.89466 19072 ft 353 kts 199°
2026-05-08 05:26 15.12894 120.88566 18684 ft 352 kts 199°
2026-05-08 05:26 15.10616 120.87675 18336 ft 349 kts 199°
2026-05-08 05:26 15.08338 120.86786 17891 ft 349 kts 199°
2026-05-08 05:27 15.06074 120.85901 17494 ft 347 kts 199°
2026-05-08 05:27 15.03851 120.85029 17119 ft 344 kts 199°
2026-05-08 05:27 15.01616 120.84152 16733 ft 342 kts 199°
2026-05-08 05:27 14.99395 120.83282 16364 ft 340 kts 199°
2026-05-08 05:28 14.97185 120.82417 15992 ft 339 kts 199°
2026-05-08 05:28 14.94994 120.81560 15525 ft 333 kts 199°
2026-05-08 05:28 14.92827 120.80713 14843 ft 331 kts 199°
2026-05-08 05:28 14.90678 120.79875 14252 ft 327 kts 199°
2026-05-08 05:29 14.88588 120.79060 13883 ft 316 kts 199°
2026-05-08 05:29 14.86569 120.78272 13478 ft 306 kts 199°
2026-05-08 05:29 14.84605 120.77506 13089 ft 296 kts 199°
2026-05-08 05:29 14.82685 120.76760 12709 ft 293 kts 199°
2026-05-08 05:30 14.80771 120.76014 12338 ft 295 kts 199°
2026-05-08 05:30 14.78849 120.75265 11958 ft 296 kts 199°
2026-05-08 05:30 14.76914 120.74510 11569 ft 297 kts 199°
2026-05-08 05:30 14.74977 120.73753 11168 ft 299 kts 199°
2026-05-08 05:31 14.73048 120.73003 10788 ft 300 kts 199°
2026-05-08 05:31 14.71090 120.72242 10387 ft 301 kts 199°
2026-05-08 05:31 14.69124 120.71478 9971 ft 303 kts 199°
2026-05-08 05:31 14.67150 120.70710 9538 ft 305 kts 199°
2026-05-08 05:32 14.65177 120.69941 9296 ft 298 kts 199°
2026-05-08 05:32 14.63247 120.69299 9159 ft 285 kts 187°
2026-05-08 05:32 14.61310 120.69250 8944 ft 274 kts 169°
2026-05-08 05:32 14.59493 120.69811 8515 ft 272 kts 150°
2026-05-08 05:33 14.57867 120.70772 8144 ft 269 kts 147°
2026-05-08 05:33 14.56235 120.71741 7799 ft 268 kts 148°
2026-05-08 05:33 14.54625 120.72682 7456 ft 265 kts 148°
2026-05-08 05:33 14.53011 120.73622 7044 ft 266 kts 148°
2026-05-08 05:34 14.51427 120.74543 6846 ft 254 kts 148°
2026-05-08 05:34 14.49920 120.75419 6459 ft 245 kts 148°
2026-05-08 05:34 14.48457 120.76273 6041 ft 239 kts 147°
2026-05-08 05:34 14.47031 120.77108 5650 ft 233 kts 147°
2026-05-08 05:35 14.45613 120.77940 5270 ft 235 kts 147°
2026-05-08 05:35 14.44188 120.78778 4896 ft 236 kts 146°
2026-05-08 05:35 14.42779 120.79606 4504 ft 230 kts 146°
2026-05-08 05:35 14.41442 120.80416 4134 ft 221 kts 140°
2026-05-08 05:36 14.40538 120.81599 3788 ft 206 kts 107°
2026-05-08 05:36 14.40444 120.83034 3477 ft 196 kts 76°
2026-05-08 05:36 14.41008 120.84276 3172 ft 193 kts 62°
2026-05-08 05:36 14.41676 120.85471 2826 ft 191 kts 62°
2026-05-08 05:37 14.42338 120.86655 2516 ft 189 kts 61°
2026-05-08 05:37 14.42989 120.87821 2214 ft 186 kts 61°
2026-05-08 05:37 14.43633 120.88973 1954 ft 184 kts 62°
2026-05-08 05:37 14.44246 120.90065 1879 ft 165 kts 62°
2026-05-08 05:38 14.44793 120.91045 1820 ft 152 kts 62°
2026-05-08 05:38 14.45142 120.91674 1780 ft 147 kts 63°
2026-05-08 05:38 14.45645 120.92580 1721 ft 145 kts 62°
2026-05-08 05:38 14.46141 120.93468 1536 ft 143 kts 62°
2026-05-08 05:39 14.46636 120.94356 1366 ft 143 kts 62°
2026-05-08 05:39 14.47132 120.95246 1158 ft 143 kts 62°
2026-05-08 05:39 14.47627 120.96139 942 ft 143 kts 61°
2026-05-08 05:39 14.48130 120.97009 734 ft 142 kts 61°
2026-05-08 05:40 14.48628 120.97884 602 ft 141 kts 63°
2026-05-08 05:40 14.49104 120.98760 401 ft 138 kts 65°
2026-05-08 05:40 14.49579 120.99617 225 ft 137 kts 68°
2026-05-08 05:40 14.50035 121.00471 64 ft 127 kts 60°
2026-05-08 05:41 14.50400 121.01114 71 ft 79 kts 60°
2026-05-08 05:41 14.50619 121.01508 69 ft 52 kts 60°
2026-05-08 05:41 14.50804 121.01749 65 ft 33 kts 36°
2026-05-08 05:41 14.50904 121.01768 68 ft 8 kts 309°
2026-05-08 05:42 14.50885 121.01708 64 ft 10 kts 242°
2026-05-08 05:42 14.50908 121.01655 62 ft 8 kts 316°
2026-05-08 05:42 14.50946 121.01615 68 ft 7 kts 314°
2026-05-08 05:42 14.50980 121.01579 68 ft 7 kts 314°
2026-05-08 05:43 14.51006 121.01510 68 ft 12 kts 240°
2026-05-08 05:43 14.50990 121.01459 66 ft 7 kts 256°
2026-05-08 05:43 14.50985 121.01441 65 ft 0 kts 254°